CW5619 Weather Reports


Display with metric or nautical units.
time (UTC)temp
F
wind
direction
speed
MPH
gust
MPH
rain 1hr
in
rain 24hr
in
rain mn
in
humidity
%
barometer
mb
20260505195404 75 239 3.0 9.0 0.00 0.23 0.12 43 1011.1
20260505194903 74 249 3.0 9.0 0.00 0.23 0.12 44 1011.0
20260505194404 75 221 2.0 10.0 0.00 0.23 0.12 45 1011.2
20260505193904 74 227 3.0 10.0 0.00 0.23 0.12 46 1011.3
20260505193404 73 237 4.0 12.0 0.00 0.23 0.12 48 1011.3
20260505192903 73 239 6.0 12.0 0.00 0.23 0.12 47 1011.2
20260505192404 74 245 5.0 10.0 0.00 0.23 0.12 47 1011.1
20260505191904 74 212 4.0 9.0 0.00 0.23 0.12 48 1011.2
20260505191403 72 257 2.0 12.0 0.00 0.23 0.12 50 1011.4
20260505190903 72 233 5.0 12.0 0.00 0.23 0.12 51 1011.6
20260505190403 73 216 2.0 8.0 0.00 0.23 0.12 50 1011.6
20260505185903 73 161 3.0 6.0 0.00 0.23 0.12 50 1011.6
20260505185403 72 246 1.0 6.0 0.00 0.23 0.12 53 1011.7
20260505184904 71 250 1.0 3.0 0.00 0.23 0.12 53 1011.7
20260505184403 71 345 2.0 3.0 0.00 0.23 0.12 54 1011.9
20260505183903 70 231 1.0 3.0 0.00 0.23 0.12 53 1011.7
20260505183404 70 309 2.0 5.0 0.00 0.23 0.12 52 1011.8
20260505182904 70 151 2.0 5.0 0.00 0.23 0.12 53 1011.9
20260505182404 71 160 1.0 3.0 0.00 0.23 0.12 55 1012.0
20260505181903 70 225 1.0 3.0 0.00 0.23 0.12 56 1012.0
20260505181403 68 255 1.0 3.0 0.00 0.23 0.12 57 1012.0
20260505180904 67 207 0.0 3.0 0.00 0.23 0.12 59 1012.1
20260505180404 68 238 1.0 3.0 0.00 0.23 0.12 58 1012.2
20260505175403 69 276 1.0 3.0 0.00 0.23 0.12 58 1012.4
20260505174403 67 245 1.0 3.0 0.00 0.23 0.12 59 1012.5
20260505173904 68 261 1.0 3.0 0.00 0.23 0.12 61 1012.4
20260505173403 67 48 0.0 3.0 0.00 0.23 0.12 61 1012.6
20260505172403 67 329 1.0 3.0 0.00 0.23 0.12 60 1012.6
20260505171903 67 192 1.0 3.0 0.00 0.23 0.12 58 1012.4
20260505171404 67 275 1.0 3.0 0.00 0.23 0.12 60 1012.5
20260505170403 66 192 1.0 3.0 0.00 0.23 0.12 60 1012.5
20260505165903 67 231 1.0 3.0 0.00 0.23 0.12 60 1012.4
20260505165404 67 206 2.0 3.0 0.00 0.23 0.12 61 1012.4
20260505164903 67 247 0.0 3.0 0.00 0.23 0.12 63 1012.4
20260505164404 66 198 0.0 5.0 0.00 0.23 0.12 62 1012.4
20260505163904 66 206 2.0 5.0 0.00 0.23 0.12 63 1012.5
20260505163403 65 225 2.0 3.0 0.00 0.23 0.12 64 1012.5
20260505162904 65 339 1.0 3.0 0.00 0.23 0.12 63 1012.3
20260505161904 65 229 1.0 5.0 0.00 0.23 0.12 64 1012.5
20260505161405 65 211 2.0 5.0 0.00 0.23 0.12 66 1012.5
20260505160903 64 155 1.0 3.0 0.00 0.23 0.12 68 1012.4
20260505160404 64 237 2.0 3.0 0.00 0.23 0.12 66 1012.4
20260505152404 64 186 1.0 3.0 0.00 0.23 0.12 73 1012.2
20260505151904 63 248 1.0 3.0 0.00 0.23 0.12 79 1012.4
20260505151404 63 254 1.0 3.0 0.00 0.23 0.12 79 1012.3
20260505150903 63 227 1.0 3.0 0.00 0.23 0.12 80 1012.4
20260505150403 62 225 1.0 3.0 0.00 0.23 0.12 80 1012.3
20260505140404 61 244 0.0 2.0 0.00 0.23 0.12 86 1012.2
20260505123903 59 221 0.0 2.0 0.00 0.23 0.12 86 1011.2
20260505123404 59 229 0.0 1.0 0.00 0.23 0.12 86 1011.1
20260505122403 59 229 0.0 1.0 0.00 0.23 0.12 86 1011.1
20260505121904 60 229 0.0 2.0 0.00 0.23 0.12 86 1011.2
20260505121404 59 229 1.0 2.0 0.00 0.23 0.12 85 1011.2
20260505120904 59 119 0.0 2.0 0.01 0.23 0.12 85 1011.2
20260505114903 59 102 0.0 6.0 0.01 0.23 0.12 85 1010.9
20260505113903 59 129 1.0 6.0 0.02 0.23 0.12 85 1010.7
20260505113403 59 107 2.0 3.0 0.02 0.23 0.12 85 1010.7
20260505112903 59 134 1.0 3.0 0.02 0.23 0.12 86 1010.9
20260505112403 59 197 0.0 2.0 0.02 0.23 0.12 86 1011.1
20260505111904 59 115 1.0 2.0 0.02 0.23 0.12 86 1011.1
20260505111404 59 170 1.0 5.0 0.03 0.23 0.12 86 1011.0
20260505110904 59 173 1.0 5.0 0.02 0.22 0.11 86 1011.0
20260505110403 59 120 2.0 3.0 0.02 0.22 0.11 86 1010.8
20260505101904 59 108 3.0 7.0 0.01 0.21 0.10 86 1011.6
20260505100404 60 139 1.0 9.0 0.00 0.20 0.09 85 1012.4
20260505095903 60 173 1.0 12.0 0.00 0.20 0.09 85 1012.2
20260505094903 60 150 2.0 12.0 0.01 0.20 0.09 85 1012.1
20260505094403 60 104 4.0 14.0 0.01 0.20 0.09 85 1011.9
20260505093904 60 159 4.0 14.0 0.01 0.20 0.09 85 1011.8
20260505093404 60 114 6.0 14.0 0.01 0.20 0.09 85 1011.8
20260505092903 60 137 2.0 10.0 0.01 0.20 0.09 85 1012.2
20260505091904 60 190 2.0 8.0 0.03 0.20 0.09 84 1012.2
20260505091404 60 101 3.0 8.0 0.03 0.20 0.09 84 1012.2
20260505090903 60 105 3.0 9.0 0.04 0.20 0.09 85 1012.1
20260505090404 60 112 2.0 9.0 0.04 0.20 0.09 85 1012.1
20260505084404 59 99 2.0 8.0 0.04 0.19 0.08 86 1012.5
20260505083904 59 106 2.0 8.0 0.05 0.19 0.08 86 1012.5
20260505083403 59 110 4.0 8.0 0.05 0.19 0.08 87 1012.8
20260505082904 59 125 3.0 8.0 0.06 0.19 0.08 87 1013.2
20260505081403 60 116 2.0 8.0 0.05 0.17 0.06 86 1013.7
20260505080904 60 94 2.0 8.0 0.04 0.16 0.05 86 1013.7
20260505080404 60 122 3.0 8.0 0.04 0.16 0.05 86 1014.0
20260505075904 60 114 2.0 7.0 0.05 0.16 0.05 87 1014.1
20260505075403 60 119 2.0 7.0 0.04 0.15 0.04 87 1014.4
20260505074904 60 117 1.0 7.0 0.05 0.15 0.04 87 1014.4
20260505074404 60 138 2.0 7.0 0.05 0.15 0.04 87 1014.2
20260505073904 60 134 2.0 8.0 0.04 0.14 0.03 87 1014.2
20260505072904 60 113 2.0 6.0 0.04 0.13 0.02 87 1014.5
20260505072404 60 102 0.0 3.0 0.04 0.12 0.01 87 1014.6
20260505071404 60 119 1.0 2.0 0.04 0.12 0.01 87 1014.5
20260505070903 60 120 0.0 3.0 0.04 0.12 0.01 86 1014.4
20260505070403 60 119 1.0 3.0 0.04 0.12 0.01 86 1014.2
20260505065404 60 113 1.0 3.0 0.03 0.11 0.11 86 1014.4
20260505064903 60 110 0.0 1.0 0.03 0.10 0.10 87 1014.6
20260505064404 60 110 0.0 2.0 0.03 0.10 0.10 86 1014.4
20260505063903 60 153 0.0 2.0 0.03 0.10 0.10 85 1014.4
20260505063403 61 175 0.0 1.0 0.02 0.09 0.09 84 1014.4
20260505062903 61 175 0.0 1.0 0.03 0.09 0.09 84 1014.3
20260505062403 61 183 0.0 1.0 0.02 0.08 0.08 83 1014.4
20260505061903 61 187 0.0 0.0 0.02 0.08 0.08 84 1014.5
20260505061403 61 187 0.0 0.0 0.02 0.08 0.08 83 1014.6
20260505060903 61 187 0.0 0.0 0.02 0.08 0.08 83 1014.6
20260505060403 61 187 0.0 0.0 0.02 0.08 0.08 82 1014.5
20260505055904 61 187 0.0 0.0 0.02 0.08 0.08 82 1014.5
20260505055404 61 187 0.0 3.0 0.02 0.08 0.08 81 1014.4
20260505054404 61 193 1.0 3.0 0.01 0.07 0.07 81 1014.2
20260505053904 60 219 1.0 2.0 0.01 0.07 0.07 81 1014.3
20260505053403 60 107 0.0 3.0 0.01 0.07 0.07 82 1014.2
20260505052904 60 73 1.0 3.0 0.00 0.06 0.06 81 1014.1
20260505052404 60 117 1.0 3.0 0.00 0.06 0.06 81 1014.2
20260505051904 60 93 1.0 3.0 0.01 0.06 0.06 83 1014.2
20260505051404 60 97 1.0 3.0 0.01 0.06 0.06 83 1014.1
20260505050903 59 101 0.0 2.0 0.01 0.06 0.06 84 1014.0
20260505040905 59 115 0.0 2.0 0.03 0.05 0.05 76 1014.3
20260505040403 60 187 0.0 2.0 0.02 0.04 0.04 72 1014.5
20260505035404 61 203 1.0 6.0 0.01 0.03 0.03 67 1014.6
20260505034903 62 158 2.0 6.0 0.00 0.02 0.02 62 1014.4
20260505034403 63 214 2.0 5.0 0.00 0.02 0.02 60 1014.3
20260505032904 63 230 1.0 3.0 0.00 0.02 0.02 59 1013.8
20260505032403 63 249 1.0 3.0 0.00 0.02 0.02 59 1013.5
20260505031904 63 161 1.0 7.0 0.00 0.02 0.02 58 1013.4
20260505031404 63 128 1.0 12.0 0.00 0.02 0.02 57 1013.0
20260505030905 64 104 5.0 13.0 0.00 0.02 0.02 55 1012.6
20260505025904 63 110 5.0 10.0 0.00 0.02 0.02 55 1012.8
20260505025403 63 120 4.0 10.0 0.01 0.02 0.02 55 1013.3
20260505024904 63 142 4.0 12.0 0.01 0.02 0.02 55 1013.4
20260505024404 63 105 3.0 12.0 0.01 0.02 0.02 56 1013.2
20260505023903 63 105 3.0 13.0 0.02 0.02 0.02 58 1013.1
20260505023404 63 110 5.0 13.0 0.02 0.02 0.02 60 1013.1
20260505022904 63 115 4.0 12.0 0.02 0.02 0.02 62 1012.9
20260505022404 62 114 4.0 12.0 0.02 0.02 0.02 64 1013.2
20260505021904 62 111 3.0 10.0 0.02 0.02 0.02 66 1013.4
20260505021404 63 102 1.0 6.0 0.02 0.02 0.02 66 1013.3
20260505020905 63 160 1.0 5.0 0.02 0.02 0.02 63 1013.5
20260505015403 64 117 1.0 3.0 0.01 0.01 0.01 59 1014.0
20260505014903 65 308 1.0 2.0 0.01 0.01 0.01 56 1014.0
20260505014405 65 282 0.0 2.0 0.01 0.01 0.01 53 1014.0
20260505013903 66 265 1.0 2.0 0.00 0.00 0.00 53 1014.0
20260505013404 67 244 0.0 1.0 0.00 0.00 0.00 53 1013.9
20260505012903 67 244 0.0 3.0 0.00 0.00 0.00 49 1014.0
20260505011404 67 192 1.0 3.0 0.00 0.00 0.00 44 1013.5
20260505010903 67 198 1.0 5.0 0.00 0.00 0.00 45 1013.5
20260505005904 67 142 2.0 6.0 0.00 0.00 0.00 45 1013.3
20260505005404 67 179 3.0 6.0 0.00 0.00 0.00 45 1013.4
20260505004903 68 188 3.0 6.0 0.00 0.00 0.00 45 1013.6
20260505004404 69 189 3.0 7.0 0.00 0.00 0.00 42 1013.6
20260505003403 70 199 3.0 9.0 0.00 0.00 0.00 38 1013.3
20260505002903 70 197 2.0 8.0 0.00 0.00 0.00 38 1013.2
20260505002403 71 220 2.0 8.0 0.00 0.00 0.00 38 1013.4
20260505001904 71 193 3.0 8.0 0.00 0.00 0.00 37 1013.3
20260505001403 71 183 4.0 8.0 0.00 0.00 0.00 36 1013.2
20260505000904 72 209 2.0 12.0 0.00 0.00 0.00 36 1013.1
20260505000405 72 201 2.0 12.0 0.00 0.00 0.00 36 1013.0
20260504235904 72 197 3.0 12.0 0.00 0.00 0.00 36 1013.0
20260504235404 72 205 2.0 5.0 0.00 0.00 0.00 36 1012.8
20260504234904 72 186 1.0 3.0 0.00 0.00 0.00 37 1012.5
20260504234403 73 215 1.0 3.0 0.00 0.00 0.00 37 1012.6
20260504233903 73 151 1.0 3.0 0.00 0.00 0.00 35 1012.5
20260504233404 73 65 2.0 9.0 0.00 0.00 0.00 39 1012.5
20260504232904 73 266 2.0 9.0 0.00 0.00 0.00 38 1012.8
20260504232404 73 22 2.0 9.0 0.00 0.00 0.00 39 1012.9
20260504231903 74 60 2.0 6.0 0.00 0.00 0.00 37 1013.1
20260504231404 75 346 1.0 12.0 0.00 0.00 0.00 34 1013.3
20260504230403 76 185 5.0 12.0 0.00 0.00 0.00 31 1013.3
20260504225903 78 235 6.0 13.0 0.00 0.00 0.00 25 1013.3
20260504225404 78 231 3.0 13.0 0.00 0.00 0.00 24 1013.1
20260504224904 79 233 5.0 12.0 0.00 0.00 0.00 22 1012.8
20260504224404 79 227 5.0 12.0 0.00 0.00 0.00 21 1012.7
20260504223903 79 232 5.0 10.0 0.00 0.00 0.00 20 1012.7
20260504223404 80 197 3.0 10.0 0.00 0.00 0.00 20 1012.6
20260504222903 80 259 3.0 12.0 0.00 0.00 0.00 20 1012.7
20260504222405 80 248 5.0 12.0 0.00 0.00 0.00 19 1012.6
20260504221904 81 229 3.0 9.0 0.00 0.00 0.00 19 1012.7
20260504221405 81 250 2.0 8.0 0.00 0.00 0.00 20 1012.6
20260504220903 81 224 3.0 8.0 0.00 0.00 0.00 19 1012.6
20260504220403 81 224 3.0 9.0 0.00 0.00 0.00 19 1012.6
20260504215904 81 247 3.0 9.0 0.00 0.00 0.00 19 1012.9
20260504215403 81 227 3.0 8.0 0.00 0.00 0.00 19 1013.0
20260504214904 82 231 3.0 9.0 0.00 0.00 0.00 18 1013.0
20260504214404 82 236 3.0 10.0 0.00 0.00 0.00 18 1012.8
20260504213903 82 222 3.0 10.0 0.00 0.00 0.00 18 1012.8
20260504213404 82 207 4.0 13.0 0.00 0.00 0.00 17 1012.7
20260504212903 82 205 3.0 13.0 0.00 0.00 0.00 17 1012.6
20260504212404 83 204 2.0 10.0 0.00 0.00 0.00 17 1012.6
20260504211404 83 240 3.0 9.0 0.00 0.00 0.00 18 1012.6
20260504210403 82 266 2.0 7.0 0.00 0.00 0.00 18 1012.5
20260504205903 82 218 3.0 8.0 0.00 0.00 0.00 18 1012.7
20260504205405 82 217 2.0 10.0 0.00 0.00 0.00 18 1012.8
20260504204403 83 207 2.0 6.0 0.00 0.00 0.00 18 1012.6
20260504203903 83 232 2.0 5.0 0.00 0.00 0.00 21 1012.7
20260504203403 82 90 1.0 7.0 0.00 0.00 0.00 21 1012.5
20260504202903 82 189 2.0 12.0 0.00 0.00 0.00 21 1012.5
20260504202405 83 241 6.0 12.0 0.00 0.00 0.00 20 1012.7
20260504201903 83 217 1.0 9.0 0.00 0.00 0.00 21 1012.4
20260504201404 82 271 2.0 9.0 0.00 0.00 0.00 21 1012.5
20260504200903 83 255 1.0 3.0 0.00 0.00 0.00 20 1012.6
20260504200404 82 315 1.0 6.0 0.00 0.00 0.00 19 1012.5
20260504195904 82 248 2.0 10.0 0.00 0.00 0.00 19 1012.5